Wainwright, AK

3:42 AM AKDT on April 29, 2017 (GMT -0800)
Wainwright

Weather History for PAWI - March, 2013

Change the Weather History Date:

Saturday, March 16, 2013

  Actual Average (PABR) Record (PABR)
Temperature  
Mean Temperature -6 °F -  
Max Temperature -2 °F -9 °F 30 °F (1943)
Min Temperature -9 °F -21 °F -47 °F (1928)
Degree Days  
Heating Degree Days 70    
Moisture  
Dew Point -11 °F    
Average Humidity 77    
Maximum Humidity 84    
Minimum Humidity 71    
Precipitation  
Precipitation 0.00 in - - ()
Sea Level Pressure  
Sea Level Pressure 30.13 in    
Wind  
Wind Speed 20 mph (East)    
Max Wind Speed 25 mph    
Max Gust Speed -    
Visibility 5 miles    
Events      
Averages and records for this station are not official NWS values.
T = Trace of Precipitation, MM = Missing Value Source: NWS Daily Summary

Daily Weather History Graph

Daily Weather History Graph

Search for Another Location

Airport or City:

Trip Planner

Search our weather history database for the weather conditions in past years. The results will help you decide how hot, cold, wet, or windy it might be!

Date:

Astronomy

Mar. 16, 2013 Rise Set
Actual Time 8:55 AM AKDT 8:43 PM AKDT
Civil Twilight 7:52 AM AKDT 9:46 PM AKDT
Nautical Twilight 6:34 AM AKDT 11:05 PM AKDT
Astronomical Twilight 4:53 AM AKDT 12:50 AM AKDT
Moon 7:54 AM AKDT (3/16) 4:39 AM AKDT (3/16)
Length of Visible Light 13h 53m
Length of Day
11h 48m
Waxing Crescent, 24% of the Moon is Illuminated
Mar 16
Waxing Crescent
Mar 19
First Quarter
Mar 27
Full
Apr 2
Last Quarter
Apr 10
New

Hourly Weather History & Observations

Time (AKDT) Temp. Windchill Dew Point Humidity Pressure Visibility Wind Dir Wind Speed Gust Speed Precip Events Conditions
12:04 AM -2.2 °F -25.2 °F -7.6 °F 78% 30.10 in 6.0 mi East 20.7 mph - N/A   Haze
12:17 AM -2.2 °F -26.2 °F -7.6 °F 78% 30.10 in 5.0 mi East 23.0 mph - N/A   Haze
12:29 AM -2.2 °F -26.7 °F -7.6 °F 78% 30.09 in 2.0 mi East 24.2 mph - N/A   Haze
12:50 AM -2.2 °F -26.7 °F -7.6 °F 78% 30.09 in 1.8 mi East 24.2 mph - N/A   Haze
12:53 AM -2.0 °F -26.9 °F -8.0 °F 76% 30.09 in 1.8 mi East 25.3 mph - N/A   Haze
1:53 AM -2.9 °F -27.6 °F -9.0 °F 75% 30.09 in 1.8 mi East 24.2 mph - N/A   Haze
2:25 AM -2.2 °F -25.2 °F -9.4 °F 71% 30.08 in 2.0 mi East 20.7 mph - N/A   Haze
2:40 AM -4.0 °F -21.2 °F -9.4 °F 78% 30.09 in 1.5 mi ESE 10.4 mph - N/A   Haze
2:53 AM -4.0 °F -22.1 °F -9.0 °F 79% 30.09 in 1.5 mi East 11.5 mph - N/A   Haze
3:08 AM -4.0 °F -23.7 °F -9.4 °F 78% 30.08 in 2.0 mi East 13.8 mph - N/A   Haze
3:31 AM -4.0 °F -26.4 °F -9.4 °F 78% 30.08 in 1.2 mi East 18.4 mph - N/A   Haze
3:53 AM -5.1 °F -27.8 °F -9.9 °F 80% 30.07 in 1.5 mi East 18.4 mph - N/A   Haze
4:53 AM -5.1 °F -29.0 °F -11.0 °F 76% 30.07 in 1.8 mi East 20.7 mph - N/A   Haze
5:17 AM -5.8 °F -30.5 °F -11.2 °F 77% 30.07 in 1.5 mi East 21.9 mph - N/A   Haze
5:53 AM -6.0 °F -29.0 °F -11.9 °F 75% 30.08 in 1.5 mi East 18.4 mph - N/A   Haze
6:05 AM -5.8 °F -27.5 °F -11.2 °F 77% 30.08 in 2.5 mi ENE 16.1 mph - N/A   Haze
6:26 AM -7.6 °F -31.7 °F -11.2 °F 84% 30.08 in 2.5 mi ENE 19.6 mph - N/A   Haze
6:38 AM -7.6 °F -32.3 °F -11.2 °F 84% 30.08 in 1.2 mi East 20.7 mph - N/A   Haze
6:53 AM -7.1 °F -32.7 °F -13.0 °F 75% 30.09 in 2.5 mi East 23.0 mph - N/A   Haze
7:05 AM -7.6 °F -32.3 °F -13.0 °F 77% 30.08 in 1.5 mi East 20.7 mph - N/A   Haze
7:14 AM -7.6 °F -31.7 °F -13.0 °F 77% 30.09 in 3.0 mi East 19.6 mph - N/A   Haze
7:53 AM -8.0 °F -28.0 °F -13.0 °F 79% 30.12 in 8.0 mi East 12.7 mph - N/A   Clear
8:53 AM -9.0 °F -33.6 °F -15.0 °F 75% 30.12 in 8.0 mi East 19.6 mph - N/A   Clear
9:33 AM -9.4 °F -35.2 °F -14.8 °F 77% 30.12 in 1.8 mi East 21.9 mph - N/A   Haze
9:45 AM -9.4 °F -34.7 °F -14.8 °F 77% 30.12 in 3.0 mi ENE 20.7 mph - N/A   Haze
9:53 AM -9.0 °F -33.6 °F -16.1 °F 71% 30.12 in 6.0 mi ENE 19.6 mph - N/A   Haze
10:53 AM -9.0 °F -32.4 °F -15.0 °F 75% 30.14 in 10.0 mi East 17.3 mph - N/A   Clear
11:53 AM -8.0 °F -31.0 °F -14.1 °F 75% 30.14 in 7.0 mi ENE 17.3 mph - N/A   Clear
12:53 PM -7.1 °F -31.0 °F -13.0 °F 75% 30.16 in 5.0 mi ENE 19.6 mph - N/A   Haze
1:53 PM -5.1 °F -28.4 °F -11.9 °F 72% 30.17 in 6.0 mi East 19.6 mph - N/A   Haze
2:53 PM -4.0 °F -25.2 °F -9.9 °F 76% 30.18 in 10.0 mi ENE 16.1 mph - N/A   Clear
3:53 PM -2.9 °F -20.8 °F -9.0 °F 75% 30.19 in 10.0 mi ENE 11.5 mph - N/A   Clear
4:53 PM -2.0 °F -21.9 °F -9.0 °F 72% 30.19 in 10.0 mi ENE 15.0 mph - N/A   Clear
5:53 PM -2.0 °F -22.6 °F -8.0 °F 76% 30.19 in 10.0 mi ENE 16.1 mph - N/A   Clear
6:53 PM -2.0 °F -25.0 °F -8.0 °F 76% 30.19 in 5.0 mi ENE 20.7 mph - N/A   Haze
7:53 PM -2.9 °F -27.2 °F -8.0 °F 79% 30.19 in 7.0 mi ENE 23.0 mph - N/A   Clear
8:53 PM -4.0 °F -22.1 °F -9.0 °F 79% 30.21 in 10.0 mi ENE 11.5 mph - N/A   Clear
9:53 PM -4.0 °F -24.5 °F -9.9 °F 76% 30.22 in 10.0 mi East 15.0 mph - N/A   Clear
10:53 PM -5.1 °F -27.2 °F -11.0 °F 76% 30.23 in 10.0 mi East 17.3 mph - N/A   Clear
11:53 PM -5.1 °F -27.8 °F -11.0 °F 76% 30.24 in 10.0 mi East 18.4 mph - N/A   Clear